Weather History for Langdon, ND

Change the Weather History Date:

Wednesday, August 27, 2014

  Actual Average (KDVL) Record (KDVL)
Temperature  
Mean Temperature 56 °F -  
Max Temperature 73 °F 77 °F 95 °F (1984)
Min Temperature 39 °F 51 °F 33 °F (1982)
Degree Days  
Heating Degree Days 9    
Growing Degree Days 6 (Base 50)    
Moisture  
Dew Point 49 °F    
Average Humidity 74    
Maximum Humidity 100    
Minimum Humidity 41    
Precipitation  
Precipitation 0.00 in - - ()
Sea Level Pressure  
Sea Level Pressure 30.13 in    
Wind  
Wind Speed 6 mph (SSW)    
Max Wind Speed 16 mph    
Max Gust Speed 26 mph    
Visibility 9 miles    
Events Fog    
Averages and records for this station are not official NWS values.
T = Trace of Precipitation, MM = Missing Value Source: NWS Daily Summary

Daily Weather History Graph

Daily Weather History Graph

Search for Another Location

Airport:

Trip Planner

Search our weather history database for the weather conditions in past years. The results will help you decide how hot, cold, wet, or windy it might be!

Date:

Astronomy

Aug. 27, 2014 Rise Set
Actual Time 6:43 AM CDT 8:25 PM CDT
Civil Twilight 6:10 AM CDT 8:58 PM CDT
Nautical Twilight 5:29 AM CDT 9:39 PM CDT
Astronomical Twilight 4:44 AM CDT 10:23 PM CDT
Moon 8:54 AM CDT (8/27) 9:02 PM CDT (8/27)
Length of Visible Light 14h 48m
Length of Day
13h 42m
Waxing Crescent, 4% of the Moon is Illuminated
Aug 27
Waxing Crescent
Sep 2
First Quarter
Sep 8
Full
Sep 15
Last Quarter
Sep 24
New

Hourly Weather History & Observations

Time (CDT) Temp. Windchill Dew Point Humidity Pressure Visibility Wind Dir Wind Speed Gust Speed Precip Events Conditions
12:15 AM 44.6 °F 43.1 °F 42.8 °F 93% 30.15 in 10.0 mi SW 3.5 mph - N/A   Clear
12:35 AM 44.6 °F 42.2 °F 42.8 °F 93% 30.16 in 10.0 mi SW 4.6 mph - N/A   Clear
12:55 AM 44.6 °F 43.1 °F 41.0 °F 87% 30.16 in 10.0 mi SSW 3.5 mph - N/A   Clear
1:15 AM 44.6 °F 43.1 °F 42.8 °F 93% 30.16 in 10.0 mi SSW 3.5 mph - N/A   Clear
1:55 AM 42.8 °F 41.1 °F 41.0 °F 93% 30.16 in 10.0 mi SSW 3.5 mph - N/A   Clear
2:15 AM 41.0 °F 39.0 °F 41.0 °F 100% 30.16 in 10.0 mi South 3.5 mph - N/A   Clear
2:35 AM 42.8 °F 38.6 °F 41.0 °F 93% 30.16 in 10.0 mi SSW 6.9 mph - N/A   Clear
2:55 AM 41.0 °F 37.1 °F 41.0 °F 100% 30.17 in 10.0 mi SSW 5.8 mph - N/A   Clear
3:15 AM 41.0 °F 39.0 °F 41.0 °F 100% 30.16 in 10.0 mi SW 3.5 mph - N/A   Clear
3:35 AM 44.6 °F 43.1 °F 41.0 °F 87% 30.16 in 10.0 mi SSW 3.5 mph - N/A   Clear
3:55 AM 42.8 °F 41.1 °F 41.0 °F 93% 30.16 in 10.0 mi SSW 3.5 mph - N/A   Clear
4:15 AM 42.8 °F - 41.0 °F 93% 30.16 in 10.0 mi Calm Calm - N/A   Clear
4:35 AM 41.0 °F 38.0 °F 39.2 °F 93% 30.16 in 10.0 mi SSW 4.6 mph - N/A   Clear
4:55 AM 41.0 °F 37.1 °F 39.2 °F 93% 30.16 in 10.0 mi SSW 5.8 mph - N/A   Clear
5:15 AM 41.0 °F 39.0 °F 39.2 °F 93% 30.16 in 10.0 mi South 3.5 mph - N/A   Clear
5:35 AM 41.0 °F 38.0 °F 39.2 °F 93% 30.16 in 10.0 mi South 4.6 mph - N/A   Clear
5:55 AM 41.0 °F 39.0 °F 39.2 °F 93% 30.16 in 9.0 mi South 3.5 mph - N/A   Clear
6:15 AM 39.2 °F 35.9 °F 39.2 °F 100% 30.16 in 7.0 mi South 4.6 mph - N/A   Clear
6:35 AM 39.2 °F 35.9 °F 39.2 °F 100% 30.16 in 7.0 mi South 4.6 mph - N/A   Clear
6:55 AM 39.2 °F 35.0 °F 39.2 °F 100% 30.16 in 0.2 mi South 5.8 mph - N/A Fog Fog
7:15 AM 41.0 °F 37.1 °F 39.2 °F 93% 30.16 in 0.2 mi South 5.8 mph - N/A Fog Fog
7:35 AM 44.6 °F 41.4 °F 42.8 °F 93% 30.17 in 0.2 mi SSW 5.8 mph - N/A Fog Fog
7:55 AM 46.4 °F 44.3 °F 46.4 °F 100% 30.17 in 0.5 mi SSW 4.6 mph - N/A Fog Fog
8:15 AM 50.0 °F - 50.0 °F 100% 30.17 in 6.0 mi SSW 3.5 mph - N/A   Clear
8:35 AM 51.8 °F - 51.8 °F 100% 30.17 in 10.0 mi Calm Calm - N/A   Clear
8:55 AM 55.4 °F - 53.6 °F 94% 30.17 in 10.0 mi SSW 4.6 mph - N/A   Clear
9:15 AM 57.2 °F - 55.4 °F 94% 30.17 in 10.0 mi South 5.8 mph - N/A   Clear
9:35 AM 59.0 °F - 55.4 °F 88% 30.17 in 10.0 mi WSW 3.5 mph - N/A   Clear
10:15 AM 64.4 °F - 53.6 °F 68% 30.17 in 10.0 mi SW 8.1 mph - N/A   Clear
10:35 AM 66.2 °F - 53.6 °F 64% 30.17 in 10.0 mi SSW 8.1 mph - N/A   Clear
10:55 AM 66.2 °F - 51.8 °F 60% 30.16 in 10.0 mi SSW 6.9 mph - N/A   Clear
11:15 AM 68.0 °F - 50.0 °F 52% 30.16 in 10.0 mi SSW 6.9 mph - N/A   Clear
11:35 AM 68.0 °F - 48.2 °F 49% 30.16 in 10.0 mi SW 9.2 mph - N/A   Clear
11:55 AM 69.8 °F - 50.0 °F 49% 30.16 in 10.0 mi SSW 10.4 mph - N/A   Clear
12:15 PM 69.8 °F - 50.0 °F 49% 30.16 in 10.0 mi SSW 10.4 mph 17.3 mph N/A   Clear
12:35 PM 71.6 °F - 50.0 °F 46% 30.16 in 10.0 mi South 10.4 mph - N/A   Clear
12:55 PM 71.6 °F - 50.0 °F 46% 30.16 in 10.0 mi SSW 13.8 mph 17.3 mph N/A   Partly Cloudy
1:15 PM 71.6 °F - 50.0 °F 46% 30.16 in 10.0 mi SW 11.5 mph 17.3 mph N/A   Partly Cloudy
1:35 PM 71.6 °F - 48.2 °F 43% 30.15 in 10.0 mi South 11.5 mph 19.6 mph N/A   Scattered Clouds
1:55 PM 71.6 °F - 48.2 °F 43% 30.14 in 10.0 mi South 12.7 mph - N/A   Partly Cloudy
2:15 PM 73.4 °F - 48.2 °F 41% 30.13 in 10.0 mi SSW 15.0 mph 26.5 mph N/A   Clear
2:35 PM 73.4 °F - 50.0 °F 44% 30.13 in 10.0 mi South 13.8 mph - N/A   Clear
2:55 PM 73.4 °F - 50.0 °F 44% 30.12 in 10.0 mi South 8.1 mph 19.6 mph N/A   Clear
3:15 PM 73.4 °F - 50.0 °F 44% 30.12 in 10.0 mi SSW 12.7 mph 19.6 mph N/A   Clear
3:35 PM 73.4 °F - 50.0 °F 44% 30.11 in 10.0 mi SSW 16.1 mph - N/A   Partly Cloudy
3:55 PM 73.4 °F - 50.0 °F 44% 30.10 in 10.0 mi SSW 16.1 mph - N/A   Clear
4:15 PM 73.4 °F - 51.8 °F 47% 30.10 in 10.0 mi SSW 13.8 mph 19.6 mph N/A   Clear
4:35 PM 73.4 °F - 51.8 °F 47% 30.09 in 10.0 mi SSW 13.8 mph 17.3 mph N/A   Clear
4:55 PM 73.4 °F - 53.6 °F 50% 30.09 in 10.0 mi South 11.5 mph 19.6 mph N/A   Clear
5:15 PM 73.4 °F - 51.8 °F 47% 30.09 in 10.0 mi SW 15.0 mph 19.6 mph N/A   Scattered Clouds
5:35 PM 73.4 °F - 51.8 °F 47% 30.08 in 10.0 mi SSW 10.4 mph 19.6 mph N/A   Scattered Clouds
5:55 PM 71.6 °F - 53.6 °F 53% 30.08 in 10.0 mi South 10.4 mph - N/A   Partly Cloudy
6:15 PM 71.6 °F - 53.6 °F 53% 30.08 in 10.0 mi SSW 10.4 mph - N/A   Partly Cloudy
6:35 PM 71.6 °F - 53.6 °F 53% 30.07 in 10.0 mi SSW 10.4 mph 17.3 mph N/A   Clear
6:55 PM 71.6 °F - 55.4 °F 57% 30.07 in 10.0 mi SSW 10.4 mph - N/A   Clear
7:15 PM 71.6 °F - 55.4 °F 57% 30.06 in 10.0 mi South 11.5 mph - N/A   Clear
7:35 PM 69.8 °F - 55.4 °F 60% 30.06 in 10.0 mi South 9.2 mph - N/A   Clear
7:55 PM 68.0 °F - 55.4 °F 64% 30.05 in 10.0 mi South 6.9 mph - N/A   Clear
8:15 PM 64.4 °F - 55.4 °F 73% 30.05 in 10.0 mi South 5.8 mph - N/A   Clear
8:35 PM 62.6 °F - 55.4 °F 77% 30.05 in 10.0 mi SSE 8.1 mph - N/A   Clear
8:55 PM 62.6 °F - 55.4 °F 77% 30.05 in 10.0 mi SSE 8.1 mph - N/A   Clear
9:15 PM 59.0 °F - 55.4 °F 88% 30.06 in 10.0 mi SSE 8.1 mph - N/A   Clear
9:35 PM 57.2 °F - 53.6 °F 88% 30.05 in 10.0 mi SSE 9.2 mph - N/A   Clear
9:55 PM 57.2 °F - 53.6 °F 88% 30.05 in 10.0 mi SSE 9.2 mph - N/A   Clear
10:15 PM 57.2 °F - 53.6 °F 88% 30.05 in 10.0 mi SSE 8.1 mph - N/A   Clear
10:35 PM 55.4 °F - 53.6 °F 94% 30.05 in 10.0 mi SSE 9.2 mph - N/A   Clear
10:55 PM 55.4 °F - 53.6 °F 94% 30.05 in 10.0 mi SSE 8.1 mph - N/A   Clear
11:15 PM 55.4 °F - 55.4 °F 100% 30.04 in 10.0 mi SSE 8.1 mph - N/A   Clear
11:35 PM 57.2 °F - 55.4 °F 94% 30.04 in 10.0 mi SSE 8.1 mph - N/A   Clear